N4BCD Weather Reports


time (UTC)temp
C
wind
direction
speed
KPH
gust
KPH
rain 1hr
cm
rain 24hr
cm
rain mn
cm
humidity
%
barometer
mb
20260906052512 23 87 6.4 11.3 0.00 0.00 0.00 86 1013.1
20260906052015 23 98 3.2 6.4 0.00 0.00 0.00 88 1013.2
20260906051527 23 66 1.6 6.4 0.00 0.00 0.00 89 1013.2
20260906051015 23 91 3.2 4.8 0.00 0.00 0.00 90 1013.1
20260906050519 23 79 1.6 6.4 0.00 0.00 0.00 90 1013.1
20260906050033 22 88 1.6 6.4 0.00 0.00 0.00 90 1013.2
20260906045521 22 65 1.6 6.4 0.00 0.00 0.00 90 1013.3
20260906045003 22 122 1.6 8.0 0.00 0.00 0.00 90 1013.1
20260906044510 22 39 3.2 8.0 0.00 0.00 0.00 90 1013.1
20260906044003 22 60 0.0 1.6 0.00 0.00 0.00 89 1013.1
20260906043506 22 356 0.0 0.0 0.00 0.00 0.00 89 1013.1
20260906043023 22 356 0.0 0.0 0.00 0.00 0.00 89 1013.1
20260906042509 22 356 0.0 0.0 0.00 0.00 0.00 89 1013.3
20260906042009 22 314 0.0 0.0 0.00 0.00 0.00 89 1013.3
20260906041527 22 292 0.0 0.0 0.00 0.00 0.00 89 1013.2
20260906041013 22 248 0.0 1.6 0.00 0.00 0.00 89 1013.3
20260906040514 22 248 0.0 1.6 0.00 0.00 0.00 89 1013.4
20260906040031 22 248 0.0 1.6 0.00 0.00 0.00 88 1013.3
20260906035515 22 248 0.0 1.6 0.00 0.00 0.00 88 1013.3
20260906035014 22 147 1.6 1.6 0.00 0.00 0.00 89 1013.3
20260906034534 22 120 0.0 1.6 0.00 0.00 0.00 88 1013.3
20260906034016 22 65 0.0 1.6 0.00 0.00 0.00 88 1013.4
20260906033503 22 65 0.0 3.2 0.00 0.00 0.00 88 1013.4
20260906033015 22 48 1.6 3.2 0.00 0.00 0.00 88 1013.4
20260906032509 22 43 3.2 3.2 0.00 0.00 0.00 87 1013.3
20260906032009 23 95 0.0 1.6 0.00 0.00 0.00 87 1013.3
20260906031519 23 110 0.0 1.6 0.00 0.00 0.00 87 1013.3
20260906031013 23 351 0.0 3.2 0.00 0.00 0.00 87 1013.1
20260906030512 23 351 1.6 3.2 0.00 0.00 0.00 87 1013.0
20260906030027 23 39 0.0 3.2 0.00 0.00 0.00 86 1013.0
20260906025513 23 127 0.0 1.6 0.00 0.00 0.00 86 1012.9
20260906025015 23 127 0.0 0.0 0.00 0.00 0.00 86 1012.8
20260906024530 23 127 0.0 0.0 0.00 0.00 0.00 85 1012.8
20260906024015 23 127 0.0 3.2 0.00 0.00 0.00 85 1012.8
20260906023514 23 127 0.0 3.2 0.00 0.00 0.00 85 1012.8
20260906023030 23 155 0.0 3.2 0.00 0.00 0.00 85 1012.7
20260906022504 23 155 1.6 3.2 0.00 0.00 0.00 84 1012.6
20260906022008 24 136 1.6 3.2 0.00 0.00 0.00 83 1012.6
20260906021534 24 258 1.6 3.2 0.00 0.00 0.00 83 1012.5
20260906021007 23 283 1.6 3.2 0.00 0.00 0.00 84 1012.5
20260906020513 23 212 0.0 0.0 0.00 0.00 0.00 84 1012.4
20260906020025 24 211 0.0 1.6 0.00 0.00 0.00 84 1012.4
20260906015511 24 212 0.0 1.6 0.00 0.00 0.00 83 1012.3
20260906015010 24 211 0.0 3.2 0.00 0.00 0.00 83 1012.1
20260906014528 24 211 1.6 3.2 0.00 0.00 0.00 82 1012.1
20260906014012 24 204 1.6 3.2 0.00 0.00 0.00 82 1012.1
20260906013515 24 106 0.0 1.6 0.00 0.00 0.00 81 1012.1
20260906013040 25 83 0.0 1.6 0.00 0.00 0.00 82 1012.0
20260906012519 25 75 1.6 1.6 0.00 0.00 0.00 80 1012.0
20260906012017 25 324 0.0 1.6 0.00 0.00 0.00 79 1012.0
20260906011536 25 49 0.0 1.6 0.00 0.00 0.00 79 1012.1
20260906011006 25 49 0.0 3.2 0.00 0.00 0.00 79 1012.2
20260906010508 25 49 0.0 3.2 0.00 0.00 0.00 79 1012.3
20260906010019 25 49 0.0 3.2 0.00 0.00 0.00 78 1012.3
20260906005509 25 49 0.0 4.8 0.00 0.00 0.00 77 1012.2
20260906005009 26 69 3.2 4.8 0.00 0.00 0.00 76 1012.2
20260906004527 26 117 3.2 4.8 0.00 0.00 0.00 76 1012.1
20260906004012 26 149 0.0 1.6 0.00 0.00 0.00 75 1012.0
20260906003514 26 248 0.0 3.2 0.00 0.00 0.00 74 1011.9
20260906003028 26 248 0.0 8.0 0.00 0.00 0.00 74 1012.0
20260906002514 26 234 1.6 8.0 0.00 0.00 0.00 74 1011.9
20260906002016 26 208 4.8 8.0 0.00 0.00 0.00 72 1011.9
20260906001535 27 169 3.2 3.2 0.00 0.00 0.00 71 1011.8
20260906001016 27 145 0.0 0.0 0.00 0.00 0.00 70 1011.7
20260906000518 27 122 0.0 0.0 0.00 0.00 0.00 70 1011.7
20260906000034 27 358 0.0 1.6 0.00 0.00 0.00 69 1011.7
20260905235507 27 358 0.0 4.8 0.00 0.00 0.00 69 1011.7
20260905235009 27 358 0.0 6.4 0.00 0.00 0.00 70 1011.9
20260905234530 27 65 1.6 9.7 0.00 0.00 0.00 69 1011.9
20260905234008 27 30 4.8 9.7 0.00 0.00 0.00 69 1012.0
20260905233510 27 47 4.8 8.0 0.00 0.00 0.00 68 1012.1
20260905233027 27 34 4.8 8.0 0.00 0.00 0.00 68 1012.3
20260905232500 27 63 3.2 9.7 0.00 0.00 0.00 68 1012.5
20260905232004 27 42 0.0 14.5 0.00 0.00 0.00 68 1012.2
20260905231506 27 60 3.2 16.1 0.00 0.00 0.00 68 1012.3
20260905231003 27 65 4.8 24.1 0.00 0.00 0.00 67 1012.2
20260905230504 27 72 11.3 24.1 0.00 0.00 0.00 65 1011.9
20260905230010 28 110 6.4 20.9 0.00 0.00 0.00 65 1012.1
20260905225504 28 129 6.4 27.4 0.00 0.00 0.00 64 1012.2
20260905225003 28 71 11.3 27.4 0.00 0.00 0.00 61 1012.3
20260905224517 30 93 11.3 27.4 0.00 0.00 0.00 58 1012.4
20260905224008 29 155 4.8 8.0 0.00 0.00 0.00 60 1011.8
20260905223514 29 77 3.2 11.3 0.00 0.00 0.00 59 1011.6
20260905223024 30 82 6.4 22.5 0.00 0.00 0.00 58 1011.6
20260905222514 30 56 4.8 24.1 0.00 0.00 0.00 58 1011.8
20260905222002 31 104 12.9 29.0 0.00 0.00 0.00 55 1011.8
20260905221504 32 84 17.7 32.2 0.00 0.00 0.00 52 1011.7
20260905221003 33 94 19.3 32.2 0.00 0.00 0.00 50 1011.6
20260905220503 36 97 9.7 19.3 0.00 0.00 0.00 46 1011.6
20260905220009 36 324 4.8 14.5 0.00 0.00 0.00 46 1011.4
20260905215504 36 52 4.8 14.5 0.00 0.00 0.00 47 1011.2
20260905215006 36 300 4.8 12.9 0.00 0.00 0.00 47 1011.1
20260905214510 36 41 6.4 12.9 0.00 0.00 0.00 47 1011.1
20260905214007 36 63 6.4 17.7 0.00 0.00 0.00 49 1011.1
20260905213509 36 273 4.8 17.7 0.00 0.00 0.00 49 1011.1
20260905213017 36 280 6.4 17.7 0.00 0.00 0.00 48 1011.1
20260905212509 36 278 11.3 17.7 0.00 0.00 0.00 48 1011.2
20260905212012 36 319 4.8 14.5 0.00 0.00 0.00 48 1011.2
20260905211524 36 289 6.4 14.5 0.00 0.00 0.00 48 1011.3
20260905211011 36 286 4.8 11.3 0.00 0.00 0.00 46 1011.3
20260905210504 36 318 4.8 11.3 0.00 0.00 0.00 47 1011.3
20260905210007 36 358 4.8 9.7 0.00 0.00 0.00 46 1011.3
20260905205503 36 21 1.6 11.3 0.00 0.00 0.00 46 1011.3
20260905205005 36 47 4.8 11.3 0.00 0.00 0.00 45 1011.3
20260905204514 36 307 4.8 8.0 0.00 0.00 0.00 46 1011.3
20260905204004 36 261 3.2 6.4 0.00 0.00 0.00 45 1011.3
20260905203508 36 127 3.2 11.3 0.00 0.00 0.00 46 1011.5
20260905203014 36 28 3.2 11.3 0.00 0.00 0.00 46 1011.5
20260905202507 35 345 6.4 16.1 0.00 0.00 0.00 47 1011.7
20260905202008 36 27 8.0 16.1 0.00 0.00 0.00 45 1011.8
20260905201520 36 330 3.2 9.7 0.00 0.00 0.00 48 1011.8
20260905201010 36 3 4.8 12.9 0.00 0.00 0.00 48 1012.0
20260905200509 36 49 8.0 12.9 0.00 0.00 0.00 46 1012.1
20260905200033 35 295 3.2 14.5 0.00 0.00 0.00 49 1012.1
20260905195514 35 41 8.0 14.5 0.00 0.00 0.00 49 1012.2
20260905195004 35 315 1.6 9.7 0.00 0.00 0.00 50 1012.3
20260905194507 35 331 4.8 12.9 0.00 0.00 0.00 49 1012.4
20260905194005 35 324 4.8 12.9 0.00 0.00 0.00 48 1012.4
20260905193503 35 353 3.2 12.9 0.00 0.00 0.00 47 1012.3
20260905193011 35 326 4.8 9.7 0.00 0.00 0.00 47 1012.4
20260905192506 35 326 1.6 12.9 0.00 0.00 0.00 47 1012.4
20260905192005 35 37 6.4 12.9 0.00 0.00 0.00 49 1012.6
20260905191515 34 328 1.6 6.4 0.00 0.00 0.00 54 1012.6
20260905191008 34 89 1.6 8.0 0.00 0.00 0.00 55 1012.8
20260905190509 34 41 3.2 12.9 0.00 0.00 0.00 54 1012.8
20260905190034 34 56 4.8 12.9 0.00 0.00 0.00 53 1012.9
20260905185512 35 30 8.0 14.5 0.00 0.00 0.00 49 1013.0
20260905185012 36 23 6.4 14.5 0.00 0.00 0.00 47 1013.2
20260905184537 35 144 1.6 4.8 0.00 0.00 0.00 48 1013.2
20260905184014 35 117 3.2 6.4 0.00 0.00 0.00 47 1013.2
20260905183505 35 88 1.6 11.3 0.00 0.00 0.00 52 1013.3
20260905183007 35 347 3.2 11.3 0.00 0.00 0.00 51 1013.4
20260905182502 35 42 4.8 11.3 0.00 0.00 0.00 50 1013.5
20260905182005 35 91 4.8 8.0 0.00 0.00 0.00 54 1013.6
20260905181513 34 51 1.6 6.4 0.00 0.00 0.00 53 1013.6
20260905181004 33 92 3.2 6.4 0.00 0.00 0.00 54 1013.7
20260905180508 33 92 3.2 9.7 0.00 0.00 0.00 54 1013.8
20260905180016 34 39 3.2 9.7 0.00 0.00 0.00 53 1013.8
20260905175509 34 95 1.6 8.0 0.00 0.00 0.00 55 1013.8
20260905175012 33 77 3.2 9.7 0.00 0.00 0.00 54 1013.8
20260905174528 34 67 4.8 9.7 0.00 0.00 0.00 52 1013.8
20260905174013 34 321 4.8 12.9 0.00 0.00 0.00 52 1013.8
20260905173513 34 56 4.8 12.9 0.00 0.00 0.00 51 1013.8
20260905173027 34 19 6.4 11.3 0.00 0.00 0.00 54 1013.9
20260905172514 34 2 6.4 11.3 0.00 0.00 0.00 53 1013.9
20260905172015 34 342 3.2 11.3 0.00 0.00 0.00 52 1014.0
20260905171508 34 310 4.8 14.5 0.00 0.00 0.00 53 1014.0
20260905171002 33 281 8.0 14.5 0.00 0.00 0.00 53 1014.0
20260905170505 33 226 4.8 14.5 0.00 0.00 0.00 54 1014.1
20260905170011 34 293 11.3 14.5 0.00 0.00 0.00 52 1014.1
20260905165507 34 274 3.2 17.7 0.00 0.00 0.00 57 1014.2
20260905165006 33 265 4.8 17.7 0.00 0.00 0.00 54 1014.3
20260905164520 33 327 9.7 14.5 0.00 0.00 0.00 54 1014.4
20260905164010 33 338 3.2 11.3 0.00 0.00 0.00 56 1014.5
20260905163509 33 93 4.8 11.3 0.00 0.00 0.00 55 1014.5
20260905163027 33 343 4.8 9.7 0.00 0.00 0.00 57 1014.6
20260905162513 33 297 3.2 9.7 0.00 0.00 0.00 57 1014.8
20260905162014 33 359 3.2 8.0 0.00 0.00 0.00 59 1014.9
20260905161527 33 297 3.2 8.0 0.00 0.00 0.00 59 1014.9
20260905161014 33 333 4.8 8.0 0.00 0.00 0.00 58 1015.0
20260905160513 33 82 3.2 6.4 0.00 0.00 0.00 60 1015.0
20260905160017 33 351 3.2 9.7 0.00 0.00 0.00 59 1015.1
20260905155504 32 323 4.8 9.7 0.00 0.00 0.00 58 1015.1
20260905155007 32 32 1.6 6.4 0.00 0.00 0.00 60 1015.1
20260905154517 32 285 1.6 6.4 0.00 0.00 0.00 60 1015.2
20260905154006 32 268 1.6 6.4 0.00 0.00 0.00 61 1015.2
20260905153510 32 231 1.6 6.4 0.00 0.00 0.00 60 1015.2
20260905153027 32 231 0.0 4.8 0.00 0.00 0.00 62 1015.2
20260905152512 31 205 1.6 4.8 0.00 0.00 0.00 63 1015.2
20260905152012 31 98 1.6 4.8 0.00 0.00 0.00 64 1015.2
20260905151528 31 166 1.6 6.4 0.00 0.00 0.00 64 1015.3
20260905151013 31 272 4.8 6.4 0.00 0.00 0.00 64 1015.3
20260905150515 31 314 3.2 9.7 0.00 0.00 0.00 64 1015.3
20260905150030 31 242 4.8 9.7 0.00 0.00 0.00 66 1015.3
20260905145515 31 147 3.2 8.0 0.00 0.00 0.00 67 1015.3
20260905145014 31 139 3.2 6.4 0.00 0.00 0.00 67 1015.3
20260905144521 30 197 3.2 6.4 0.00 0.00 0.00 68 1015.2
20260905144003 30 211 3.2 6.4 0.00 0.00 0.00 69 1015.2
20260905143510 30 202 4.8 6.4 0.00 0.00 0.00 70 1015.3
20260905143015 30 201 1.6 6.4 0.00 0.00 0.00 70 1015.4
20260905142507 30 229 1.6 3.2 0.00 0.00 0.00 70 1015.4
20260905142009 30 163 1.6 3.2 0.00 0.00 0.00 72 1015.4
20260905141521 30 207 1.6 3.2 0.00 0.00 0.00 72 1015.3
20260905141010 30 190 1.6 3.2 0.00 0.00 0.00 74 1015.4
20260905140513 29 217 0.0 1.6 0.00 0.00 0.00 76 1015.3
20260905140004 29 184 0.0 1.6 0.00 0.00 0.00 78 1015.4
20260905135502 28 153 0.0 1.6 0.00 0.00 0.00 79 1015.5
20260905135003 28 140 0.0 1.6 0.00 0.00 0.00 80 1015.5
20260905134507 28 91 0.0 1.6 0.00 0.00 0.00 81 1015.5
20260905134005 27 60 0.0 1.6 0.00 0.00 0.00 81 1015.6
20260905133503 27 26 0.0 3.2 0.00 0.00 0.00 84 1015.6
20260905133015 26 27 0.0 3.2 0.00 0.00 0.00 85 1015.5
20260905132504 26 258 0.0 0.0 0.00 0.00 0.00 85 1015.5
20260905132010 26 203 0.0 0.0 0.00 0.00 0.00 86 1015.6
20260905131528 26 202 0.0 0.0 0.00 0.00 0.00 85 1015.6
20260905131010 26 202 0.0 1.6 0.00 0.00 0.00 87 1015.7
20260905130514 25 202 0.0 1.6 0.00 0.00 0.00 87 1015.7
20260905130028 25 226 0.0 1.6 0.00 0.00 0.00 87 1015.6
20260905125517 25 198 0.0 0.0 0.00 0.00 0.00 88 1015.6
20260905125016 25 218 0.0 0.0 0.00 0.00 0.00 90 1015.6
20260905124510 24 217 0.0 1.6 0.00 0.00 0.00 92 1015.7
20260905124003 23 218 0.0 1.6 0.00 0.00 0.00 91 1015.7
20260905123503 23 217 0.0 1.6 0.00 0.00 0.00 91 1015.7
20260905123009 23 347 0.0 0.0 0.00 0.00 0.00 92 1015.6
20260905122503 23 347 0.0 0.0 0.00 0.00 0.00 93 1015.6
20260905122004 23 347 0.0 0.0 0.00 0.00 0.00 93 1015.5
20260905121516 22 348 0.0 0.0 0.00 0.00 0.00 93 1015.5
20260905121008 22 347 0.0 0.0 0.00 0.00 0.00 94 1015.4
20260905120508 22 347 0.0 0.0 0.00 0.00 0.00 94 1015.3
20260905120024 21 348 0.0 0.0 0.00 0.00 0.00 94 1015.3
20260905115511 21 348 0.0 0.0 0.00 0.00 0.00 93 1015.3
20260905115011 21 347 0.0 1.6 0.00 0.00 0.00 93 1015.2
20260905114528 21 347 0.0 1.6 0.00 0.00 0.00 94 1015.2
20260905114012 21 347 0.0 1.6 0.00 0.00 0.00 93 1015.2
20260905113514 21 347 0.0 0.0 0.00 0.00 0.00 93 1015.1
20260905113007 21 348 0.0 0.0 0.00 0.00 0.00 93 1015.0
20260905112504 21 348 0.0 0.0 0.00 0.00 0.00 93 1015.0
20260905112003 21 348 0.0 0.0 0.00 0.00 0.00 93 1015.0
20260905111513 21 348 0.0 0.0 0.00 0.00 0.00 93 1015.0
20260905111008 21 347 0.0 1.6 0.00 0.00 0.00 93 1014.9
20260905110507 21 348 0.0 1.6 0.00 0.00 0.00 93 1014.8
20260905110020 21 348 0.0 1.6 0.00 0.00 0.00 93 1014.7
20260905105511 21 348 0.0 1.6 0.00 0.00 0.00 93 1014.7
20260905105010 21 125 0.0 0.0 0.00 0.00 0.00 93 1014.7
20260905104532 21 125 0.0 1.6 0.00 0.00 0.00 93 1014.5
20260905104010 21 125 0.0 1.6 0.00 0.00 0.00 93 1014.5
20260905103512 21 125 0.0 0.0 0.00 0.00 0.00 93 1014.5
20260905103029 21 125 0.0 0.0 0.00 0.00 0.00 93 1014.4
20260905102514 21 125 0.0 0.0 0.00 0.00 0.00 93 1014.4
20260905102015 21 125 0.0 0.0 0.00 0.00 0.00 93 1014.5
20260905101513 21 125 0.0 0.0 0.00 0.00 0.00 93 1014.5
20260905101005 21 125 0.0 0.0 0.00 0.00 0.00 93 1014.6
20260905100507 21 125 0.0 0.0 0.00 0.00 0.00 93 1014.5
20260905100018 21 125 0.0 0.0 0.00 0.00 0.00 93 1014.6
20260905095507 21 125 0.0 1.6 0.00 0.00 0.00 93 1014.5
20260905095009 21 125 0.0 1.6 0.00 0.00 0.00 93 1014.5
20260905094523 21 125 0.0 0.0 0.00 0.00 0.00 93 1014.5
20260905094013 21 125 0.0 1.6 0.00 0.00 0.00 93 1014.5
20260905093512 21 125 0.0 1.6 0.00 0.00 0.00 93 1014.5
20260905093030 21 54 0.0 1.6 0.00 0.00 0.00 93 1014.3
20260905092511 21 54 0.0 1.6 0.00 0.00 0.00 93 1014.2
20260905092015 21 68 0.0 0.0 0.00 0.00 0.00 93 1014.1
20260905091531 21 68 0.0 0.0 0.00 0.00 0.00 93 1014.1
20260905091013 21 68 0.0 0.0 0.00 0.00 0.00 93 1014.0
20260905090517 21 68 0.0 3.2 0.00 0.00 0.00 93 1014.0
20260905090010 21 69 0.0 3.2 0.00 0.00 0.00 93 1014.1
20260905085504 21 68 0.0 1.6 0.00 0.00 0.00 93 1014.1
20260905085008 21 68 0.0 0.0 0.00 0.00 0.00 93 1014.1
20260905084520 21 68 0.0 0.0 0.00 0.00 0.00 93 1014.1
20260905084008 21 68 0.0 0.0 0.00 0.00 0.00 93 1014.0
20260905083512 22 68 0.0 0.0 0.00 0.00 0.00 93 1014.0
20260905083033 22 68 0.0 0.0 0.00 0.00 0.00 93 1014.0
20260905082512 22 68 0.0 0.0 0.00 0.00 0.00 93 1014.0
20260905082013 22 68 0.0 0.0 0.00 0.00 0.00 93 1014.0
20260905081528 22 68 0.0 0.0 0.00 0.00 0.00 93 1014.0
20260905081016 22 68 0.0 0.0 0.00 0.00 0.00 93 1014.0
20260905080513 21 68 0.0 3.2 0.00 0.00 0.00 93 1014.0
20260905080040 21 68 0.0 3.2 0.00 0.00 0.00 93 1014.0
20260905075515 21 68 1.6 3.2 0.00 0.00 0.00 93 1014.0
20260905075020 21 72 1.6 3.2 0.00 0.00 0.00 93 1014.0
20260905074514 22 73 1.6 3.2 0.00 0.00 0.00 92 1014.1
20260905074006 22 72 1.6 3.2 0.00 0.00 0.00 92 1014.0
20260905073509 22 123 0.0 0.0 0.00 0.00 0.00 92 1014.0
20260905073025 22 123 0.0 0.0 0.00 0.00 0.00 92 1014.1
20260905072512 22 123 0.0 0.0 0.00 0.00 0.00 92 1014.0
20260905072011 22 123 0.0 0.0 0.00 0.00 0.00 92 1014.0
20260905071528 22 123 0.0 1.6 0.00 0.00 0.00 92 1014.0
20260905071016 22 123 0.0 1.6 0.00 0.00 0.00 92 1014.1
20260905070512 22 123 0.0 0.0 0.00 0.00 0.00 92 1014.1
20260905070033 22 123 0.0 0.0 0.00 0.00 0.00 92 1014.1
20260905065516 22 123 0.0 0.0 0.00 0.00 0.00 92 1014.0
20260905065021 22 123 0.0 0.0 0.00 0.00 0.00 92 1014.0
20260905064532 22 123 0.0 0.0 0.00 0.00 0.00 92 1014.1
20260905064019 22 123 0.0 0.0 0.00 0.00 0.00 92 1014.1
20260905063517 22 123 0.0 0.0 0.00 0.00 0.00 92 1014.2
20260905063018 22 123 0.0 0.0 0.00 0.00 0.00 92 1014.2
20260905062511 22 123 0.0 0.0 0.00 0.00 0.00 92 1014.3
20260905062011 22 123 0.0 0.0 0.00 0.00 0.00 92 1014.4
20260905061504 22 123 0.0 1.6 0.00 0.00 0.00 92 1014.5
20260905061003 22 123 0.0 1.6 0.00 0.00 0.00 92 1014.4
20260905060503 22 123 0.0 0.0 0.00 0.00 0.00 92 1014.5
20260905060005 22 123 0.0 1.6 0.00 0.00 0.00 92 1014.5
20260905055502 22 123 0.0 1.6 0.00 0.00 0.00 92 1014.5
20260905055004 22 123 0.0 3.2 0.00 0.00 0.00 91 1014.5
20260905054510 22 123 1.6 3.2 0.00 0.00 0.00 91 1014.6
20260905054005 22 123 0.0 0.0 0.00 0.00 0.00 91 1014.6
20260905053504 22 123 0.0 0.0 0.00 0.00 0.00 91 1014.6
20260905053015 22 123 0.0 0.0 0.00 0.00 0.00 91 1014.5